Location: ?????
(31.8092°N, 35.2590°E)
Time: 20:26:37
(UTC+00:00)

Cosmos 1455 Rocket - Pass Details

Date: 25 October 2021
Orbit: 604 x 630 km, 82.5° (Epoch: 04 December)

Event Time Altitude Azimuth Distance (km) Brightness Sun altitude
Rises 01:38:19 0° 12° (NNE) 2,916 6.7 -28.5°
Reaches altitude 10° 01:41:06 10° 30° (NNE) 2,001 6.0 -27.9°
Maximum altitude 01:44:20 20° 77° (ENE) 1,465 5.7 -27.2°
Drops below altitude 10° 01:47:31 10° 124° (ESE) 1,982 6.3 -26.6°
Sets 01:50:15 0° 141° (SE) 2,878 7.0 -26.0°
